Volver al catálogo

FENGYUN 1C DEB

ActivoSSO
NORAD 31724·DEBRIS·🇨🇳 China

Lanzado May 10, 1999 desde Taiyuan Satellite Launch Center

Loading…

Próximos Pases (próximas 24 horas)

TLE

ActualizadoSource: Space-Track

Época: Sep 12, 2026, 22:40 UTC

1 31724U 99025CDX 26255.94489323  .00009729  00000-0  19672-2 0  9998
2 31724  97.8554 249.6694 0140482 109.1455 252.5011 14.55418285684738

Sigue FENGYUN 1C DEB en tiempo real con AllMySat

Download on the App Store